Retour au catalogue

DELTA 1 DEB

ActifHEO
NORAD 14620·DEBRIS·🇺🇸 United States

Lancé Aug 3, 1981 depuis Vandenberg Space Force Base

Loading…

Prochains Passages (prochaines 24 heures)

TLE

FraisSource: Space-Track

Époque: Sep 11, 2026, 21:21 UTC

1 14620U 81070J   26254.88968886  .00000905  00000-0  31502-2 0  9996
2 14620  90.7433  39.0520 5969708 116.3068 315.6195  3.86399264524370

Suivez DELTA 1 DEB en temps réel avec AllMySat

Download on the App Store